Home > Weather > Leeds > Past weeks

Flag for United Kingdom Weather for the Past 2 Weeks in Leeds, England, United Kingdom

Now
34 °F

Snow flurries. Broken clouds.


Feels Like: 23 °F
Forecast: 34 / 51 °F
Wind: 18 mph from West

Location: Leeds And Bradford

Current Time: Apr 29, 2016 at 10:20:17 AM

Latest Report: Apr 29, 2016 at 9:20 AM


Visibility: 2 mi

Pressure: 29.53 "Hg

Humidity: 100%

Dew Point: 34 °F

Location of LeedsLocation

Historic Weather in Leeds — Graph

°F

Leeds Temperature Yesterday

Maximum temperature yesterday: 43 °F (at 10:50 AM)
Minimum temperature yesterday: 28 °F (at 12:50 AM)
Average temperature yesterday: 36 °F

High & Low Weather Summary for the Past Weeks

 TemperatureHumidityPressure
High57 °F (Apr 20, 1:20 PM)100% (Apr 14, 10:50 PM)30.48 "Hg (Apr 14, 10:50 PM)
Low28 °F (Apr 28, 12:50 AM)41% (Apr 20, 1:20 PM)29.50 "Hg (Apr 15, 4:20 PM)
Average41 °F77%29.98 "Hg
* Reported Apr 14 9:20 AM — Apr 29 9:20 AM, Leeds, Weather by CustomWeather, © 2016

Note: Actual official high and low records may vary slightly from our data, if they occured in-between our weather recording intervals... More about our weather records

Advertising

Leeds Weather History for the Previous 24 Hours

Scroll right to see more
 ConditionsComfort  
Time TempWeatherWind HumidityBarometerVisibility
9:20 AM
Fri, Apr 29
34 °FSnow flurries. Broken clouds.18 mph100%29.53 "Hg1 mi
8:20 AM34 °FSnow showers. Broken clouds.17 mph93%29.53 "Hg1 mi
7:50 AM34 °FScattered clouds.13 mph93%29.53 "HgN/A
7:20 AM32 °FBroken clouds.10 mph100%29.56 "HgN/A
6:50 AM32 °FSnow flurries. Scattered clouds.12 mph100%29.56 "HgN/A
6:20 AM32 °FSnow. Dense fog.10 mph100%29.56 "Hg1 mi
5:50 AM32 °FLight snow. Passing clouds.8 mph100%29.56 "Hg2 mi
5:20 AM32 °FSnow. Passing clouds.10 mph100%29.56 "Hg1 mi
4:50 AM32 °FSnow. Passing clouds.16 mph100%29.56 "Hg1 mi
4:20 AM32 °FPassing clouds.14 mph100%29.56 "HgN/A
3:20 AM34 °FSnow flurries. Passing clouds.20 mph93%29.56 "HgN/A
2:50 AM34 °FSnow flurries. Passing clouds.18 mph87%29.59 "HgN/A
2:20 AM34 °FPassing clouds.6 mph87%29.59 "HgN/A
1:50 AM34 °FPassing clouds.9 mph87%29.59 "HgN/A
1:20 AM34 °FPassing clouds.9 mph93%29.59 "HgN/A
12:50 AM34 °FPassing clouds.10 mph93%29.59 "HgN/A
12:20 AM34 °FPassing clouds.9 mph93%29.59 "HgN/A
11:50 PM
Thu, Apr 28
34 °FPassing clouds.8 mph93%29.59 "HgN/A
11:20 PM34 °FPassing clouds.10 mph93%29.59 "HgN/A
10:50 PM34 °FPassing clouds.13 mph100%29.59 "HgN/A
10:20 PM34 °FPassing clouds.13 mph100%29.59 "HgN/A
9:50 PM34 °FLight snow. Passing clouds.15 mph100%29.62 "Hg6 mi
9:20 PM36 °FPassing clouds.14 mph87%29.62 "HgN/A
8:50 PM37 °FPassing clouds.10 mph87%29.62 "HgN/A
8:20 PM37 °FScattered clouds.8 mph93%29.62 "HgN/A
7:50 PM36 °FScattered clouds.9 mph93%29.62 "HgN/A
7:20 PM34 °FRain. Scattered clouds.21 mph93%29.62 "Hg1 mi
6:50 PM39 °FScattered clouds.12 mph87%29.62 "HgN/A
6:20 PM37 °FBroken clouds.12 mph93%29.65 "HgN/A
5:50 PM37 °FLight rain. Broken clouds.16 mph93%29.65 "HgN/A
5:20 PM39 °FLight rain. Broken clouds.12 mph93%29.65 "HgN/A
4:50 PM39 °FLight rain. Partly sunny.13 mph93%29.65 "HgN/A
4:20 PM39 °FLight rain. Broken clouds.10 mph93%29.68 "HgN/A
3:50 PM39 °FSprinkles. Broken clouds.12 mph93%29.68 "HgN/A
3:20 PM39 °FSprinkles. Partly sunny.13 mph93%29.71 "HgN/A
2:50 PM39 °FSprinkles. Partly sunny.12 mph93%29.74 "HgN/A
2:20 PM39 °FSprinkles. Scattered clouds.13 mph87%29.74 "HgN/A
1:20 PM43 °FSprinkles. Scattered clouds.13 mph61%29.77 "HgN/A
12:20 PM43 °FScattered clouds.12 mph61%29.80 "HgN/A
11:50 AM43 °FBroken clouds.10 mph66%29.80 "HgN/A
11:20 AM43 °FScattered clouds.12 mph66%29.80 "HgN/A
10:50 AM43 °FScattered clouds.10 mph71%29.83 "HgN/A
10:20 AM41 °FScattered clouds.10 mph76%29.83 "HgN/A
Weather by CustomWeather, © 2016

See weather overviewHow to use our weather pages